Change the Weather History Date:

Tuesday, December 25, 2012

  Actual Average (KLWV) Record (KLWV)
Temperature  
Mean Temperature 33 °F 32 °F  
Max Temperature 36 °F 40 °F 52 °F (2011)
Min Temperature 30 °F 25 °F -7 °F (2000)
Degree Days  
Heating Degree Days 32 33  
Month to date heating degree days 741  
Since 1 July heating degree days 1599  
Cooling Degree Days 0 0  
Month to date cooling degree days 0  
Year to date cooling degree days 1387  
Moisture  
Dew Point 27 °F    
Average Humidity 76    
Maximum Humidity 88    
Minimum Humidity 68    
Precipitation  
Precipitation 0.00 in 0.13 in 3.00 in (1982)
Month to date precipitation 2.73  
Year to date precipitation 43.22  
Sea Level Pressure  
Sea Level Pressure 30.13 in    
Wind  
Wind Speed 10 mph (North)    
Max Wind Speed 25 mph    
Max Gust Speed 32 mph    
Visibility 8 miles    
Events      
T = Trace of Precipitation, MM = Missing Value Source: NWS Daily Summary

Daily Weather History Graph

Daily Weather History Graph

Search for Another Location

Airport or City:

Trip Planner

Search our weather history database for the weather conditions in past years. The results will help you decide how hot, cold, wet, or windy it might be!

Date:

Astronomy

Dec. 25, 2012 Rise Set
Actual Time 7:07 AM CST 4:34 PM CST
Civil Twilight 6:37 AM CST 5:04 PM CST
Nautical Twilight 6:04 AM CST 5:37 PM CST
Astronomical Twilight 5:31 AM CST 6:10 PM CST
Moon 2:41 PM CST (12/25) 4:40 AM CST (12/25)
Length of Visible Light 10h 26m
Length of Day
9h 26m
Waxing Gibbous, 94% of the Moon is Illuminated
Dec 25
Waxing Gibbous
Dec 28
Full
Jan 4
Last Quarter
Jan 11
New
Jan 18
First Quarter

Hourly Weather History & Observations

Time (CST) Temp. Windchill Dew Point Humidity Pressure Visibility Wind Dir Wind Speed Gust Speed Precip Events Conditions
12:15 AM 30.9 °F 24.3 °F 26.4 °F 83% 30.11 in 5.0 mi WNW 6.9 mph - N/A   Haze
12:35 AM 30.7 °F 22.6 °F 26.4 °F 84% 30.12 in 5.0 mi WNW 9.2 mph - N/A   Haze
12:55 AM 30.7 °F 22.6 °F 26.1 °F 83% 30.12 in 5.0 mi West 9.2 mph - N/A   Haze
1:15 AM 30.7 °F 23.3 °F 26.2 °F 83% 30.12 in 5.0 mi WNW 8.1 mph - N/A   Haze
1:35 AM 30.7 °F 24.1 °F 26.1 °F 83% 30.13 in 5.0 mi WNW 6.9 mph - N/A   Haze
1:55 AM 30.7 °F 24.1 °F 25.9 °F 82% 30.14 in 5.0 mi West 6.9 mph - N/A   Haze
2:15 AM 30.9 °F 25.2 °F 26.2 °F 83% 30.14 in 5.0 mi NW 5.8 mph - N/A   Haze
2:35 AM 30.7 °F 23.3 °F 25.7 °F 82% 30.14 in 5.0 mi NW 8.1 mph - N/A   Haze
2:55 AM 30.7 °F 22.6 °F 25.9 °F 82% 30.15 in 5.0 mi NW 9.2 mph - N/A   Haze
3:15 AM 30.7 °F 23.3 °F 26.2 °F 83% 30.14 in 5.0 mi NW 8.1 mph - N/A   Haze
3:35 AM 30.7 °F 22.6 °F 26.2 °F 83% 30.14 in 5.0 mi NW 9.2 mph - N/A   Haze
3:55 AM 30.9 °F 25.2 °F 26.4 °F 83% 30.15 in 5.0 mi NW 5.8 mph - N/A   Haze
4:15 AM 31.1 °F 23.7 °F 26.6 °F 83% 30.16 in 5.0 mi NW 8.1 mph - N/A   Haze
4:35 AM 31.1 °F 25.4 °F 26.6 °F 83% 30.16 in 5.0 mi WNW 5.8 mph - N/A   Haze
4:55 AM 31.1 °F 25.4 °F 26.6 °F 83% 30.17 in 5.0 mi NW 5.8 mph - N/A   Overcast
5:15 AM 31.5 °F 28.1 °F 26.8 °F 83% 30.18 in 5.0 mi NW 3.5 mph - N/A   Overcast
5:35 AM 31.6 °F 27.0 °F 27.1 °F 83% 30.18 in 5.0 mi NW 4.6 mph - N/A   Overcast
5:55 AM 31.6 °F 26.0 °F 27.3 °F 84% 30.18 in 5.0 mi NW 5.8 mph - N/A   Haze
6:15 AM 31.8 °F 26.2 °F 27.5 °F 84% 30.18 in 5.0 mi NW 5.8 mph - N/A   Haze
6:35 AM 32.0 °F 25.6 °F 27.9 °F 85% 30.18 in 5.0 mi NNW 6.9 mph - N/A   Overcast
6:55 AM 32.0 °F 24.2 °F 28.4 °F 87% 30.16 in 5.0 mi NNW 9.2 mph - N/A   Overcast
7:15 AM 32.0 °F 23.6 °F 28.4 °F 87% 30.15 in 5.0 mi North 10.4 mph - N/A   Overcast
7:35 AM 32.2 °F 23.2 °F 29.1 °F 88% 30.14 in 4.0 mi North 11.5 mph - N/A   Overcast
7:55 AM 32.5 °F 24.8 °F 29.1 °F 87% 30.16 in 5.0 mi North 9.2 mph - N/A   Overcast
8:15 AM 32.7 °F 28.3 °F 28.9 °F 86% 30.19 in 5.0 mi NNE 4.6 mph - N/A   Mostly Cloudy
8:35 AM 33.8 °F 26.4 °F 28.9 °F 82% 30.19 in 7.0 mi North 9.2 mph - N/A   Clear
8:55 AM 34.5 °F 26.7 °F 28.8 °F 79% 30.21 in 10.0 mi North 10.4 mph - N/A   Clear
9:15 AM 35.2 °F 27.6 °F 27.5 °F 73% 30.22 in 10.0 mi NNE 10.4 mph - N/A   Clear
9:35 AM 35.4 °F 26.4 °F 27.0 °F 71% 30.23 in 10.0 mi NNE 13.8 mph 18.4 mph N/A   Scattered Clouds
9:55 AM 34.9 °F 25.7 °F 25.7 °F 69% 30.23 in 10.0 mi NNE 13.8 mph - N/A   Mostly Cloudy
10:15 AM 34.7 °F 26.4 °F 25.7 °F 70% 30.23 in 10.0 mi NNE 11.5 mph - N/A   Overcast
10:35 AM 34.7 °F 26.4 °F 26.4 °F 72% 30.24 in 10.0 mi NNE 11.5 mph - N/A   Overcast
10:55 AM 35.2 °F 27.1 °F 25.9 °F 69% 30.22 in 10.0 mi NNE 11.5 mph - N/A   Overcast
11:15 AM 35.6 °F 27.5 °F 25.9 °F 68% 30.20 in 10.0 mi NNE 11.5 mph - N/A   Overcast
11:35 AM 35.6 °F 28.0 °F 26.1 °F 68% 30.21 in 10.0 mi NNE 10.4 mph - N/A   Overcast
11:55 AM 35.8 °F 27.8 °F 26.1 °F 68% 30.18 in 10.0 mi NNE 11.5 mph - N/A   Overcast
12:15 PM 35.8 °F 28.3 °F 26.4 °F 69% 30.17 in 10.0 mi NNE 10.4 mph 16.1 mph N/A   Overcast
12:35 PM 35.6 °F 26.6 °F 26.8 °F 70% 30.16 in 10.0 mi NNE 13.8 mph - N/A   Overcast
12:55 PM 35.6 °F 26.6 °F 26.2 °F 69% 30.17 in 10.0 mi NNE 13.8 mph 18.4 mph N/A   Overcast
1:15 PM 35.8 °F 27.8 °F 26.6 °F 69% 30.18 in 10.0 mi ENE 11.5 mph - N/A   Overcast
1:35 PM 35.8 °F 27.8 °F 27.1 °F 71% 30.18 in 10.0 mi NE 11.5 mph - N/A   Overcast
1:55 PM 36.1 °F 28.7 °F 27.5 °F 71% 30.15 in 10.0 mi NNE 10.4 mph - N/A   Overcast
2:15 PM 36.1 °F 28.2 °F 27.7 °F 71% 30.13 in 10.0 mi NNE 11.5 mph - N/A   Overcast
2:35 PM 35.8 °F 26.5 °F 27.3 °F 71% 30.11 in 10.0 mi NNE 15.0 mph - N/A   Overcast
2:55 PM 35.8 °F 27.3 °F 27.9 °F 73% 30.11 in 10.0 mi NNE 12.7 mph - N/A   Overcast
3:15 PM 36.0 °F 27.1 °F 27.9 °F 72% 30.12 in 10.0 mi NNE 13.8 mph - N/A   Overcast
3:35 PM 36.0 °F 27.5 °F 28.2 °F 73% 30.12 in 10.0 mi NNE 12.7 mph 17.3 mph N/A   Overcast
3:55 PM 36.0 °F 27.5 °F 28.0 °F 73% 30.13 in 10.0 mi NNE 12.7 mph - N/A   Overcast
4:15 PM 35.8 °F 27.3 °F 28.4 °F 75% 30.13 in 10.0 mi NNE 12.7 mph 17.3 mph N/A   Overcast
4:35 PM 35.6 °F 27.1 °F 28.4 °F 75% 30.12 in 10.0 mi NNE 12.7 mph 16.1 mph N/A   Overcast
4:55 PM 35.6 °F 27.1 °F 28.4 °F 75% 30.12 in 10.0 mi NNE 12.7 mph - N/A   Overcast
5:15 PM 35.6 °F 27.1 °F 28.6 °F 76% 30.13 in 10.0 mi NNE 12.7 mph - N/A   Overcast
5:35 PM 35.6 °F 27.1 °F 28.4 °F 75% 30.14 in 10.0 mi NNE 12.7 mph 19.6 mph N/A   Overcast
5:55 PM 35.8 °F 27.3 °F 28.4 °F 75% 30.14 in 10.0 mi NNE 12.7 mph 18.4 mph N/A   Overcast
6:15 PM 35.6 °F 27.5 °F 28.2 °F 75% 30.13 in 10.0 mi NNE 11.5 mph - N/A   Overcast
6:35 PM 35.6 °F 27.1 °F 27.9 °F 73% 30.13 in 10.0 mi NNE 12.7 mph 17.3 mph N/A   Overcast
6:55 PM 35.6 °F 25.2 °F 27.0 °F 71% 30.11 in 10.0 mi NNE 18.4 mph 21.9 mph N/A   Overcast
7:15 PM 35.6 °F 25.5 °F 27.0 °F 71% 30.09 in 10.0 mi NNE 17.3 mph 24.2 mph N/A   Overcast
7:35 PM 35.1 °F 24.8 °F 27.3 °F 73% 30.08 in 10.0 mi NNE 17.3 mph - N/A   Overcast
7:55 PM 34.9 °F 24.2 °F 27.1 °F 73% 30.07 in 10.0 mi NNE 18.4 mph 24.2 mph N/A   Overcast
8:15 PM 34.7 °F 23.7 °F 27.1 °F 74% 30.06 in 10.0 mi NNE 19.6 mph 23.0 mph N/A   Overcast
8:35 PM 34.7 °F 24.0 °F 26.4 °F 72% 30.05 in 10.0 mi NNE 18.4 mph 27.6 mph N/A   Overcast
8:55 PM 34.7 °F 24.3 °F 26.6 °F 72% 30.06 in 10.0 mi NNE 17.3 mph 26.5 mph N/A   Overcast
9:15 PM 34.7 °F 24.7 °F 26.4 °F 72% 30.05 in 10.0 mi NNE 16.1 mph 25.3 mph N/A   Overcast
10:15 PM 34.7 °F 24.0 °F 26.6 °F 72% 30.02 in 10.0 mi NNE 18.4 mph - N/A   Overcast
10:35 PM 34.7 °F 25.1 °F 26.6 °F 72% 30.01 in 10.0 mi NNE 15.0 mph 21.9 mph N/A   Overcast
10:55 PM 34.9 °F 24.2 °F 26.6 °F 72% 29.99 in 10.0 mi NNE 18.4 mph 21.9 mph N/A   Overcast
11:15 PM 34.9 °F 24.6 °F 26.8 °F 72% 29.98 in 10.0 mi NNE 17.3 mph 26.5 mph N/A   Overcast
11:35 PM 35.1 °F 22.7 °F 27.1 °F 73% 29.94 in 10.0 mi NNE 25.3 mph 32.2 mph N/A   Overcast
11:55 PM 35.2 °F 23.2 °F 27.1 °F 72% 29.92 in 10.0 mi NNE 24.2 mph 31.1 mph N/A   Overcast